Regional Weather Roundup
Issued by NWS Charleston, SC

Home | Current Version | Previous Version | Text Only | Print | Product List | Glossary On
Versions: 1 2 3 4 5 6 7 8 9 10 11 12 13 14 15 16 17 18 19 20 21 22 23 24 25 26 27 28 29 30 31 32 33 34 35 36 37 38 39 40 41 42 43 44 45 46 47 48 49 50
355
ASUS42 KCHS 281228
RWRCHS

REGIONAL WEATHER ROUNDUP
NATIONAL WEATHER SERVICE CHARLESTON SC
800 AM EDT THU JUL 28 2016

NOTE: "FAIR" INDICATES FEW OR NO CLOUDS BELOW 12,000 FEET WITH NO
SIGNIFICANT WEATHER AND/OR OBSTRUCTIONS TO VISIBILITY.

NOT ALL STATIONS ARE QUALITY CONTROLLED. USE DATA WITH CAUTION...
ESPECIALLY DEWPOINT OBSERVATIONS.

SCZ027-030-031-034>040-042>050-281300-
...SOUTHEAST SOUTH CAROLINA...

CITY           SKY/WX    TMP DP  RH WIND       PRES   REMARKS
N CHARLESTON   SUNNY     83  72  69 W8        30.01R
6HR MIN TEMP:  80; 6HR MAX TEMP:  84;

WATERFRONT PRK   N/A     83  74  74 W5        29.98R HX  90
MOUNT PLEASANT FAIR      84  75  74 NW5       30.01R HX  92
JOHNS ISLAND   FAIR      84  75  74 W9        30.01S HX  92
PINOPOLIS        N/A     81  75  83 SW9       29.92S
MONCKS CORNER  FAIR      79  70  73 W3        30.01R
SUMMERVILLE    FAIR      81  73  78 W5        30.02R
BEAUFORT MCAS  SUNNY     83  72  69 W8        30.03R
6HR MIN TEMP:  79; 6HR MAX TEMP:  83;

BEAUFORT ARPT  FAIR      82  72  69 W8        30.02S
HILTON HEAD IS SUNNY     81  72  74 SW7       30.03S
WALTERBORO     SUNNY     82  72  69 W6        30.03R
ALLENDALE      FAIR      81  72  74 CALM      30.02S

...SOUTHERN MIDLANDS AND PEE DEE...

CITY           SKY/WX    TMP DP  RH WIND       PRES   REMARKS
GEORGETOWN     FAIR      81  73  78 W6        30.01R
KINGSTREE      FAIR      81  72  74 SW5       30.00R
ORANGEBURG     SUNNY     81  72  74 W6        30.02R
6HR MIN TEMP:  76; 6HR MAX TEMP:  82;

BARNWELL       NOT AVBL
AIKEN          FAIR      79  70  73 SW7       30.06S
MANNING        FAIR      81  72  74 W5        30.00S
COLUMBIA       SUNNY     81  70  69 SW7       29.99R
6HR MIN TEMP:  77; 6HR MAX TEMP:  84;

SUMTER         SUNNY     81  70  68 W9        29.97R
6HR MIN TEMP:  78; 6HR MAX TEMP:  83;

FLORENCE       SUNNY     83  70  64 W8        29.98R
6HR MIN TEMP:  80; 6HR MAX TEMP:  83;

MYRTLE BEACH   SUNNY     82  72  69 W8        29.99R
N MYRTLE BEACH SUNNY     83  76  79 W5        29.97R HX  91
6HR MIN TEMP:  81; 6HR MAX TEMP:  83;


$$

GAZ063-065-086>088-099>101-113>116-118-119-134>141-150-281300-
...SOUTHEAST GEORGIA...

CITY           SKY/WX    TMP DP  RH WIND       PRES   REMARKS
SAVANNAH ARPT  SUNNY     80  71  74 W8        30.04R
6HR MIN TEMP:  77; 6HR MAX TEMP:  82;

HUNTER AAF     SUNNY     80  75  84 W8        30.02R
6HR MIN TEMP:  78; 6HR MAX TEMP:  81;

FORT STEWART   SUNNY     80  71  73 W8        30.03R
6HR MIN TEMP:  76; 6HR MAX TEMP:  80;

STATESBORO     SUNNY     82  74  77 W5        30.05R
SYLVANIA       NOT AVBL
CLAXTON        FAIR      81  74  80 SW3       30.05R

...CSRA...CENTRAL AND FAR SOUTHEAST GEORGIA...

CITY           SKY/WX    TMP DP  RH WIND       PRES   REMARKS
THOMSON        NOT AVBL
AUGUSTA-BUSH   SUNNY     79  71  76 SW6       30.02R
6HR MIN TEMP:  74; 6HR MAX TEMP:  82;

AUGUSTA-DANIEL SUNNY     82  70  66 VRB5      30.03S
SWAINSBORO     FAIR      79  72  78 W6        30.06S
VIDALIA        SUNNY     79  72  78 NW3       30.06S
EASTMAN        FAIR      79  70  73 W3        30.08S
HAZLEHURST     FAIR      81  76  85 CALM      30.05S
ALMA           SUNNY     77  74  90 CALM      30.05S
6HR MIN TEMP:  73; 6HR MAX TEMP:  79;

WAYCROSS       SUNNY     82  78  86 CALM      30.06R HX  92
JESUP          FAIR      81  77  89 NW5       30.06R
BAXLEY         FAIR      81  79  94 W3        30.06R
BRUNSWICK      SUNNY     82  77  83 W3        30.06R HX  91
SAINT SIMONS   SUNNY     82  74  76 W7        30.04S
6HR MIN TEMP:  79; 6HR MAX TEMP:  83;


$$

SCZ027-028-034-036>038-045-046-048>050-GAZ119-141-281300-
...LAKE AND SUPPLEMENTAL COASTAL OBSERVATIONS...

STATION/POSITION TIME  TEMP    WIND        PRES    WAVE   SWELL
                       AIR SEA DIR/SP/G            HT/PER HT/PER/DIR
                 (UTC) (F)     (DEG/KT/KT) (MB)    (FT/S) (FT/S/D)
WINYAH BAY       1145   82     270/  6     1015.0R
LAKE MURRAY      1100   82     270/  9/ 11 1014.9R
ACE BASIN NERRS  1100   80     240/  1     1016.0S
FORT PULASKI     1200   82 87  280/ 12/ 13 1017.4R
SAPELO ISLAND    1200   81     280/  4     1017.0S

$$

ANZ835-935-AMZ111-154-330-350-352-354-370-450-454-472-281300-
...C-MAN AND BUOY OBSERVATIONS...

STATION/POSITION TIME  TEMP    WIND        PRES    WAVE   SWELL
                       AIR SEA DIR/SP/G            HT/PER HT/PER/DIR
                 (UTC) (F)     (DEG/KT/KT) (MB)    (FT/S) (FT/S/D)
BUOY 41004       1150   86 86  260/ 16/ 19 1015.5R   4/ 6   2/150/ 8
BUOY 41008       1150   84 86  270/ 12/ 14 1016.9R   2/ 5   2/ 90/ 8
FOLLY BEACH CMAN 1200   83     280/  4/  7 1016.2R
CAPERS NEARSHORE 1108   84 83  280/ 12/ 14 1015.5R
FRIPP NEARSHORE  1208   84 87  290/ 12/ 16 1016.0R


STATION/POSITION TIME  TEMP    WIND        PRES    WAVE   SWELL
                       AIR SEA DIR/SP/G            HT/PER HT/PER/DIR
                 (UTC) (F)     (DEG/KT/KT) (MB)    (FT/S) (FT/S/D)
5E ST. MARYS GA  1201      85                N/A     2/ 4
FRYING PAN BUOY  1200   85 85  260/ 14/ 16 1015.0R
BUOY 41025       1150   84 84  210/  8/ 10 1014.4R   2/ 6   2/210/ 6
CAPE LOOKOUT NC  1200   84     220/  7/ 10 1013.9R
BUOY 41002       1150   84 84  280/ 12/ 14 1017.1R   3/ 6   2/270/ 6
BUOY 41010       1120   85 87  230/  6/  8 1018.1R
ST AUGUSTINE FL  1200   82 84  250/  5/  6 1018.7R


$$




USA.gov is the U.S. government's official web portal to all federal, state and local government web resources and services.